DW8622 Weather Reports


Display with metric or nautical units.
time (UTC)temp
F
wind
direction
speed
MPH
gust
MPH
rain 1hr
in
rain 24hr
in
rain mn
in
humidity
%
barometer
mb
20260503220008 55 0 0.0 0.0 0.00 0.31 0.00 94 1011.2
20260503215506 56 0 0.0 0.0 0.00 0.31 0.31 94 1011.1
20260503215006 56 0 0.0 0.0 0.00 0.31 0.31 95 1011.1
20260503214503 56 0 0.0 0.0 0.00 0.32 0.31 94 1011.0
20260503214006 56 0 0.0 0.0 0.00 0.34 0.31 94 1011.1
20260503213521 56 178 0.0 2.0 0.00 0.35 0.31 94 1011.0
20260503213006 56 177 1.0 6.0 0.00 0.37 0.31 94 1011.0
20260503212506 56 176 1.0 6.0 0.00 0.38 0.31 94 1011.0
20260503211506 57 174 0.0 5.0 0.00 0.40 0.31 94 1011.0
20260503211006 57 181 0.0 5.0 0.00 0.41 0.31 94 1010.9
20260503210507 57 176 1.0 5.0 0.00 0.43 0.31 94 1011.0
20260503210006 57 170 1.0 5.0 0.00 0.48 0.31 94 1010.9
20260503205506 57 157 0.0 3.0 0.00 0.60 0.31 94 1010.8
20260503205021 57 0 0.0 0.0 0.00 0.76 0.31 94 1010.8
20260503204506 57 0 0.0 0.0 0.00 0.79 0.31 94 1010.8
20260503204006 57 187 0.0 4.0 0.00 0.79 0.31 94 1010.8
20260503203506 57 176 1.0 5.0 0.00 0.79 0.31 94 1010.9
20260503203007 57 176 1.0 5.0 0.00 0.79 0.31 94 1011.0
20260503202506 57 182 1.0 5.0 0.00 0.79 0.31 94 1011.0
20260503202006 57 176 1.0 4.0 0.00 0.79 0.31 94 1011.0
20260503201507 57 169 0.0 4.0 0.00 0.79 0.31 94 1010.9
20260503201006 57 162 1.0 4.0 0.00 0.79 0.31 94 1010.8
20260503200006 57 172 2.0 6.0 0.00 0.79 0.31 94 1010.9
20260503195506 57 174 2.0 6.0 0.00 0.79 0.31 94 1010.8
20260503193506 58 173 1.0 7.0 0.00 0.79 0.31 94 1010.6
20260503193006 58 172 2.0 6.0 0.01 0.79 0.31 94 1010.5
20260503192506 58 176 1.0 6.0 0.01 0.79 0.31 94 1010.5
20260503192007 59 189 0.0 4.0 0.01 0.79 0.31 94 1010.4
20260503191506 59 0 0.0 0.0 0.01 0.79 0.31 94 1010.3
20260503191006 59 0 0.0 0.0 0.02 0.79 0.31 93 1010.2
20260503190506 59 0 0.0 0.0 0.02 0.79 0.31 94 1010.2
20260503190006 59 0 0.0 0.0 0.02 0.79 0.31 94 1010.1
20260503185506 59 174 0.0 5.0 0.03 0.79 0.31 94 1010.0
20260503185003 59 174 1.0 5.0 0.03 0.79 0.31 93 1009.9
20260503184506 60 174 1.0 5.0 0.03 0.79 0.31 93 1010.0
20260503184006 60 173 1.0 6.0 0.03 0.79 0.31 93 1010.0
20260503182506 60 150 2.0 7.0 0.02 0.78 0.31 93 1009.9
20260503181506 60 148 0.0 4.0 0.02 0.78 0.31 93 1009.9
20260503181006 60 0 0.0 0.0 0.02 0.77 0.30 93 1009.9
20260503180506 60 0 0.0 0.0 0.01 0.76 0.29 93 1009.9
20260503180006 60 155 0.0 1.0 0.01 0.76 0.29 93 1009.8
20260503175506 60 177 0.0 3.0 0.00 0.76 0.28 93 1009.9
20260503175006 60 176 0.0 4.0 0.01 0.76 0.28 92 1009.9
20260503174506 61 175 0.0 4.0 0.01 0.76 0.28 92 1009.9
20260503174007 61 178 0.0 3.0 0.01 0.76 0.28 93 1009.9
20260503173506 61 0 0.0 0.0 0.01 0.76 0.28 93 1009.8
20260503173006 61 0 0.0 0.0 0.01 0.76 0.28 92 1009.6
20260503172506 62 0 0.0 0.0 0.01 0.76 0.28 93 1009.6
20260503172006 61 0 0.0 0.0 0.01 0.76 0.28 93 1009.5
20260503171507 62 0 0.0 0.0 0.01 0.76 0.28 92 1009.4
20260503171006 62 0 0.0 0.0 0.01 0.76 0.28 92 1009.4
20260503170506 62 0 0.0 0.0 0.01 0.76 0.28 92 1009.4
20260503150507 61 0 0.0 0.0 0.06 0.75 0.28 94 1009.7
20260503131007 61 160 1.0 6.0 0.02 0.67 0.20 93 1010.1
20260503130506 61 172 1.0 5.0 0.02 0.67 0.20 93 1010.1
20260503110506 61 177 1.0 5.0 0.05 0.61 0.13 94 1010.4
20260503090506 63 230 2.0 9.0 0.00 0.48 0.01 89 1010.3
20260503081007 62 211 1.0 5.0 0.00 0.48 0.01 91 1010.0
20260503080506 62 211 0.0 7.0 0.00 0.48 0.01 91 1010.0
20260503072006 61 163 2.0 5.0 0.00 0.48 0.01 94 1009.9
20260503071007 61 149 2.0 5.0 0.00 0.48 0.01 95 1009.8
20260503070506 60 150 2.0 5.0 0.00 0.48 0.01 95 1009.7
20260503055007 58 116 0.0 7.0 0.00 0.48 0.01 95 1009.9
20260503054507 58 124 0.0 5.0 0.00 0.48 0.01 95 1010.0
20260503054007 58 125 0.0 5.0 0.00 0.48 0.01 95 1010.0
20260503053506 58 122 0.0 3.0 0.00 0.48 0.01 95 1010.1
20260503053007 58 0 0.0 0.0 0.00 0.48 0.01 96 1010.0
20260503052506 58 0 0.0 0.0 0.00 0.48 0.01 96 1010.1
20260503052007 58 0 0.0 0.0 0.00 0.48 0.01 96 1010.1
20260503051507 58 0 0.0 0.0 0.00 0.48 0.01 95 1010.0
20260503051007 57 0 0.0 0.0 0.00 0.48 0.01 95 1010.1
20260503050507 57 0 0.0 0.0 0.00 0.48 0.01 95 1010.2
20260503050008 57 0 0.0 0.0 0.00 0.48 0.01 95 1010.2
20260503045507 57 0 0.0 0.0 0.00 0.48 0.01 95 1010.2
20260503045008 57 0 0.0 0.0 0.00 0.48 0.01 95 1010.1
20260503044507 57 0 0.0 0.0 0.00 0.48 0.01 95 1010.0
20260503042508 57 116 0.0 1.0 0.00 0.48 0.01 95 1010.2
20260503042007 57 0 0.0 0.0 0.00 0.48 0.01 95 1010.1
20260503040006 57 0 0.0 0.0 0.00 0.48 0.01 95 1010.2
20260503035507 57 0 0.0 0.0 0.00 0.48 0.01 95 1010.3
20260503035007 57 0 0.0 0.0 0.00 0.48 0.01 95 1010.2
20260503034506 57 0 0.0 0.0 0.00 0.48 0.01 95 1010.2
20260503033507 57 0 0.0 0.0 0.00 0.48 0.01 95 1010.1
20260503033006 58 0 0.0 0.0 0.00 0.48 0.01 95 1010.1
20260503032507 57 0 0.0 0.0 0.00 0.48 0.01 95 1010.4
20260503032007 58 0 0.0 0.0 0.00 0.48 0.01 95 1010.6
20260503031506 58 0 0.0 0.0 0.00 0.48 0.01 95 1010.7
20260503031006 58 0 0.0 0.0 0.00 0.48 0.01 95 1010.8
20260503030507 58 0 0.0 0.0 0.00 0.48 0.01 95 1010.8
20260503030007 58 0 0.0 0.0 0.00 0.48 0.01 95 1010.9
20260503025507 58 0 0.0 0.0 0.00 0.48 0.01 95 1011.0
20260503025006 58 0 0.0 0.0 0.00 0.48 0.01 95 1011.2
20260503024507 58 0 0.0 0.0 0.00 0.48 0.01 95 1011.2
20260503024006 58 0 0.0 0.0 0.00 0.48 0.01 95 1011.2
20260503023508 58 0 0.0 0.0 0.00 0.48 0.01 95 1011.3
20260503023006 58 0 0.0 0.0 0.00 0.48 0.01 95 1011.4
20260503022506 58 0 0.0 0.0 0.00 0.48 0.01 95 1011.5
20260503022007 58 0 0.0 0.0 0.00 0.48 0.01 95 1011.4
20260503021507 58 0 0.0 0.0 0.00 0.48 0.01 95 1011.5
20260503021006 58 0 0.0 0.0 0.00 0.48 0.01 95 1011.5
20260503020508 58 0 0.0 0.0 0.00 0.48 0.01 95 1011.5
20260503020007 58 0 0.0 0.0 0.00 0.48 0.01 95 1011.6
20260503015506 58 0 0.0 0.0 0.00 0.48 0.01 95 1011.5
20260503015006 58 0 0.0 0.0 0.00 0.48 0.01 95 1011.5
20260503014507 57 0 0.0 0.0 0.00 0.48 0.01 95 1011.4
20260503014008 57 0 0.0 0.0 0.00 0.48 0.01 95 1011.5
20260503013507 57 0 0.0 0.0 0.00 0.48 0.01 95 1011.5
20260503013004 57 0 0.0 0.0 0.00 0.48 0.01 95 1011.4
20260503011506 57 0 0.0 0.0 0.00 0.48 0.01 95 1011.3
20260503011007 57 0 0.0 0.0 0.00 0.48 0.01 95 1011.3
20260503010507 57 0 0.0 0.0 0.00 0.48 0.01 95 1011.4
20260503010007 57 0 0.0 0.0 0.00 0.48 0.01 95 1011.3
20260503005507 57 0 0.0 0.0 0.00 0.48 0.01 95 1011.4
20260503005006 57 0 0.0 0.0 0.00 0.48 0.01 95 1011.4
20260503004506 57 0 0.0 0.0 0.00 0.48 0.01 94 1011.4
20260503004007 57 0 0.0 0.0 0.00 0.48 0.01 94 1011.4
20260503003507 57 0 0.0 0.0 0.00 0.48 0.01 94 1011.4
20260503002505 57 0 0.0 0.0 0.00 0.48 0.01 94 1011.5
20260503001505 57 0 0.0 0.0 0.00 0.48 0.01 94 1011.6
20260503001007 57 0 0.0 0.0 0.00 0.48 0.01 94 1011.6
20260503000006 57 0 0.0 0.0 0.00 0.48 0.01 94 1011.6
20260502235506 57 0 0.0 0.0 0.00 0.48 0.01 94 1011.7
20260502235005 57 0 0.0 0.0 0.00 0.48 0.01 94 1011.8
20260502234505 57 0 0.0 0.0 0.00 0.48 0.01 94 1011.9
20260502234006 57 0 0.0 0.0 0.00 0.48 0.01 94 1012.0
20260502233506 57 0 0.0 0.0 0.00 0.48 0.01 94 1012.1
20260502233005 58 0 0.0 0.0 0.00 0.48 0.01 94 1012.2
20260502232506 58 0 0.0 0.0 0.00 0.48 0.01 94 1012.3
20260502232005 58 0 0.0 0.0 0.00 0.48 0.01 94 1012.3
20260502231505 58 0 0.0 0.0 0.00 0.48 0.01 94 1012.2
20260502231006 58 0 0.0 0.0 0.00 0.48 0.01 94 1012.3
20260502230506 58 0 0.0 0.0 0.01 0.48 0.01 94 1012.1
20260502230005 58 0 0.0 0.0 0.01 0.48 0.01 94 1012.3
20260502225506 58 0 0.0 0.0 0.01 0.48 0.01 94 1012.3
20260502225007 58 0 0.0 0.0 0.01 0.48 0.01 93 1012.4
20260502224506 58 0 0.0 0.0 0.02 0.48 0.01 94 1012.4
20260502224005 58 0 0.0 0.0 0.03 0.48 0.01 93 1012.4
20260502223506 58 0 0.0 0.0 0.05 0.48 0.01 93 1012.5
20260502223005 58 0 0.0 0.0 0.06 0.48 0.01 93 1012.4
20260502222006 58 0 0.0 0.0 0.09 0.48 0.01 93 1012.3
20260502221506 58 0 0.0 0.0 0.09 0.48 0.01 93 1012.3
20260502221005 58 0 0.0 0.0 0.10 0.48 0.01 93 1012.3